Starlink 3629

operational
NORAD ID: 51774 Int'l Des: 2022-017 Owner: SPXS Country: US Constellation: starlink
LEOCIRCULAR

About Starlink 3629

Description loading...

Live Position

Loading 3D Globe...

Upcoming Passes

Altitude History

Altitude vs Time

uPlot chart will show altitude changes over time

Two-Line Element Set

1 51774U 22017G 26049.25298343 -.00000423 00000-0 -84946-5 0 9990
2 51774 53.2184 66.3746 0001659 113.3235 246.7932 15.08841026219639
Epoch: Feb 18, 2026 • Age: 12 hours

Current Status

Altitude 543.9 km
Velocity 7.59 km/s
Sub-Earth Point -15.75°S, 163.7°W
Launch Date Feb 25, 2022
Age 3.9 years
Type internet

Technical Details

Classification Payload
Mass 297.00 kg
Dry Mass 275.00 kg
Total Mass 297.00 kg
Length 0.20 m
Diameter 2.80 m
Span 9.00 m
Shape Box + pan
Manufacturer SPXS
Bus Type Starlink
Phase Status In Orbit
Owner/State SPXS/US

Large Constellations

Loading constellations...